Regional Weather Roundup
Issued by NWS Charleston, SC

Current Version | Previous Version | Text Only | Print | Product List | Glossary Off
Versions: 1 2 3 4 5 6 7 8 9 10 11 12 13 14 15 16 17 18 19 20 21 22 23 24 25 26 27 28 29 30 31 32 33 34 35 36 37 38 39 40 41 42 43 44 45 46 47 48 49 50

000
ASUS42 KCHS 030127
RWRCHS

REGIONAL WEATHER ROUNDUP
NATIONAL WEATHER SERVICE CHARLESTON SC
900 PM EDT SUN AUG 02 2015

NOTE: "FAIR" INDICATES FEW OR NO CLOUDS BELOW 12,000 FEET WITH NO
SIGNIFICANT WEATHER AND/OR OBSTRUCTIONS TO VISIBILITY.

NOT ALL STATIONS ARE QUALITY CONTROLLED BY THE NATIONAL
WEATHER SERVICE. USE DATA WITH CAUTION...ESPECIALLY
DEWPOINT OBSERVATIONS.

SCZ027-030-031-034>040-042>050-030200-
...SOUTHEAST SOUTH CAROLINA...

CITY           SKY/WX    TMP DP  RH WIND       PRES   REMARKS
N CHARLESTON   MOCLDY    79  73  82 SE3       29.91S
WATERFRONT PRK   N/A     80  76  87 VRB2      29.89F
MOUNT PLEASANT MOCLDY    77  75  94 SE5       29.92S
JOHNS ISLAND   MOCLDY    81  75  83 CALM      29.91S
PINOPOLIS      NOT AVBL
MONCKS CORNER  FAIR      79  72  78 CALM      29.92S
SUMMERVILLE    FAIR      77  75  94 CALM      29.92S
BEAUFORT MCAS  CLOUDY    78  74  87 S8        29.91R
BEAUFORT ARPT  CLOUDY    77  73  88 S8        29.91R
HILTON HEAD IS LGT RAIN  75  75 100 SW3       29.92F
WALTERBORO     PTCLDY    79  73  83 E5        29.92R
ALLENDALE      FAIR      81  75  83 CALM      29.90R

...SOUTHERN MIDLANDS AND PEE DEE...

CITY           SKY/WX    TMP DP  RH WIND       PRES   REMARKS
GEORGETOWN     NOT AVBL
KINGSTREE      NOT AVBL
ORANGEBURG     MOCLDY    80  68  66 SE7       29.90F
BARNWELL       FAIR      81  73  78 SE7       29.91R
AIKEN          FAIR      77  70  78 SE5       29.93F
MANNING        HVY RAIN  75  70  83 SE3       29.91S
COLUMBIA       PTCLDY    82  69  64 E6        29.88F
SUMTER         CLOUDY    78  68  69 SE3       29.89S
FLORENCE       PTCLDY    79  72  79 S6        29.91F
MYRTLE BEACH   PTCLDY    81  72  74 S9        29.94S
N MYRTLE BEACH PTCLDY    81  72  74 S10       29.93S

$$

GAZ063-065-086>088-099>101-113>116-118-119-134>141-150-030200-
...SOUTHEAST GEORGIA...

CITY           SKY/WX    TMP DP  RH WIND       PRES   REMARKS
SAVANNAH ARPT  MOCLDY    76  73  91 SE5       29.89S
HUNTER AAF     PTCLDY    76  76 100 SE2       29.88R
FORT STEWART   NOT AVBL
STATESBORO     CLEAR     78  76  96 SE5       29.90R
SYLVANIA       CLEAR     79  77  92 CALM      29.91R
CLAXTON        NOT AVBL

...CSRA...CENTRAL AND FAR SOUTHEAST GEORGIA...

CITY           SKY/WX    TMP DP  RH WIND       PRES   REMARKS
THOMSON        CLOUDY    76  76  98 NE3       29.94S
AUGUSTA-BUSH   PTCLDY    77  70  79 CALM      29.88S
AUGUSTA-DANIEL MOCLDY    80  69  69 SE3       29.90S
SWAINSBORO     FAIR      81  77  89 SE6       29.90R
VIDALIA        FOG       77  73  88 SE6       29.89R VSB 1/4
EASTMAN        MOCLDY    81  80  96 SE5       29.90R HX  90
HAZLEHURST     FAIR      79  78  99 CALM      29.87R
ALMA           PTCLDY    78  74  87 SE6       29.86S
WAYCROSS       CLOUDY    80  78  92 SE8       29.86S
JESUP          CLOUDY    79  77  94 CALM      29.88S
BAXLEY         FAIR      79  75  89 CALM      29.87R
BRUNSWICK      MOCLDY    79  75  89 CALM      29.89R
SAINT SIMONS   CLOUDY    80  74  81 S8        29.88S

$$

SCZ027-028-034-036>038-045-046-048>050-GAZ119-141-030200-
...LAKE AND SUPPLEMENTAL COASTAL OBSERVATIONS...

STATION/POSITION TIME  TEMP    WIND        PRES    WAVE   SWELL
                       AIR SEA DIR/SP/G            HT/PER HT/PER/DIR
                 (UTC) (F)     (DEG/KT/KT) (MB)    (FT/S) (FT/S/D)
UPR LAKE MARION  NOT AVBL
WINYAH BAY       0045   80     170/  6     1012.0S
LAKE MURRAY      0000   85     120/  8/ 17 1011.9R
ACE BASIN NERRS  NOT AVBL
FORT PULASKI     0100   77 86   80/  3/  4 1013.2R
SAPELO ISLAND    0100   77     110/  4     1012.0S

$$

ANZ835-935-AMZ111-154-330-350-352-354-370-450-454-472-030200-
...C-MAN AND BUOY OBSERVATIONS...

STATION/POSITION TIME  TEMP    WIND        PRES    WAVE   SWELL
                       AIR SEA DIR/SP/G            HT/PER HT/PER/DIR
                 (UTC) (F)     (DEG/KT/KT) (MB)    (FT/S) (FT/S/D)
BUOY 41004       0050   78 83  170/ 19/ 23 1013.1R   4/ 6   2/ 7
BUOY 41008       0050   81 83  190/ 12/ 16 1012.3R   4/ 5   2/120/ 7
FOLLY BEACH CMAN 0100   80     130/ 11/ 12 1012.9F
CAPERS NEARSHORE 0008   80     200/  6/ 10 1013.2R
FRIPP NEARSHORE  0000   82     190/ 10/ 14 1011.8F


STATION/POSITION TIME  TEMP    WIND        PRES    WAVE   SWELL
                       AIR SEA DIR/SP/G            HT/PER HT/PER/DIR
                 (UTC) (F)     (DEG/KT/KT) (MB)    (FT/S) (FT/S/D)
5E ST. MARYS GA  0021      83                N/A     4/ 5
FRYING PAN BUOY  0050   81 83  190/ 17/ 21 1014.2F   4/ 7   2/160/ 9
BUOY 41025       0050   82 85  220/ 17/ 19 1013.6F   4/ 4   2/110/11
CAPE LOOKOUT NC  0100   80     210/ 14/ 17 1013.7F
BUOY 41002       0050   81 81  210/  4/  4 1016.2F   4/ 8   5/250/ 8
BUOY 41010       0020   83 84  180/ 14/ 16 1015.2R
ST AUGUSTINE FL  0100   79 81  170/ 15/ 17 1012.9R


$$


USA.gov is the U.S. government's official web portal to all federal, state and local government web resources and services.